| time (UTC) | temp C | wind direction | speed KPH | gust KPH | rain 1hr cm | rain 24hr cm | rain mn cm | humidity % | barometer mb |
| 20260510082524 | 11 | 257 | 0.0 | 1.6 | 0.00 | 0.00 | 0.00 | 93 | 1010.6 |
| 20260510082003 | 11 | 256 | 0.0 | 1.6 | 0.00 | 0.00 | 0.00 | 93 | 1010.5 |
| 20260510081503 | 11 | 236 | 0.0 | 1.6 | 0.00 | 0.00 | 0.00 | 92 | 1010.3 |
| 20260510081003 | 11 | 202 | 0.0 | 1.6 | 0.00 | 0.00 | 0.00 | 92 | 1010.2 |
| 20260510080503 | 11 | 208 | 0.0 | 3.2 | 0.00 | 0.00 | 0.00 | 91 | 1010.2 |
| 20260510080003 | 11 | 215 | 0.0 | 3.2 | 0.00 | 0.00 | 0.00 | 91 | 1010.1 |
| 20260510075503 | 11 | 215 | 0.0 | 1.6 | 0.00 | 0.00 | 0.00 | 91 | 1010.2 |
| 20260510075003 | 11 | 0 | 0.0 | 0.0 | 0.00 | 0.00 | 0.00 | 91 | 1010.1 |
| 20260510074503 | 11 | 211 | 0.0 | 1.6 | 0.00 | 0.00 | 0.00 | 91 | 1010.1 |
| 20260510074003 | 11 | 211 | 0.0 | 1.6 | 0.00 | 0.00 | 0.00 | 91 | 1010.2 |
| 20260510073503 | 11 | 0 | 0.0 | 0.0 | 0.00 | 0.00 | 0.00 | 90 | 1010.2 |
| 20260510073003 | 12 | 0 | 0.0 | 0.0 | 0.00 | 0.00 | 0.00 | 89 | 1010.1 |
| 20260510072503 | 12 | 178 | 0.0 | 1.6 | 0.00 | 0.00 | 0.00 | 89 | 1010.1 |
| 20260510072024 | 12 | 190 | 0.0 | 3.2 | 0.00 | 0.00 | 0.00 | 88 | 1010.1 |
| 20260510071503 | 12 | 197 | 0.0 | 3.2 | 0.00 | 0.00 | 0.00 | 88 | 1010.1 |
| 20260510071024 | 12 | 207 | 0.0 | 3.2 | 0.00 | 0.00 | 0.00 | 88 | 1010.1 |
| 20260510070503 | 12 | 217 | 1.6 | 9.7 | 0.00 | 0.00 | 0.00 | 88 | 1010.1 |
| 20260510070024 | 12 | 222 | 1.6 | 9.7 | 0.00 | 0.00 | 0.00 | 88 | 1010.1 |
| 20260510065503 | 13 | 219 | 0.0 | 3.2 | 0.00 | 0.00 | 0.00 | 87 | 1010.1 |
| 20260510065003 | 13 | 212 | 1.6 | 4.8 | 0.00 | 0.00 | 0.00 | 86 | 1010.1 |
| 20260510064503 | 13 | 207 | 1.6 | 4.8 | 0.00 | 0.00 | 0.00 | 86 | 1010.1 |
| 20260510064003 | 13 | 204 | 1.6 | 4.8 | 0.00 | 0.00 | 0.00 | 86 | 1010.1 |
| 20260510063503 | 13 | 206 | 1.6 | 4.8 | 0.00 | 0.00 | 0.00 | 86 | 1010.1 |
| 20260510063003 | 13 | 207 | 1.6 | 6.4 | 0.00 | 0.00 | 0.00 | 85 | 1010.1 |
| 20260510062503 | 13 | 205 | 1.6 | 6.4 | 0.00 | 0.00 | 0.00 | 85 | 1010.2 |
| 20260510062024 | 14 | 209 | 1.6 | 4.8 | 0.00 | 0.00 | 0.00 | 85 | 1010.2 |
| 20260510061503 | 14 | 213 | 1.6 | 4.8 | 0.00 | 0.00 | 0.00 | 85 | 1010.2 |
| 20260510061003 | 14 | 210 | 1.6 | 4.8 | 0.00 | 0.00 | 0.00 | 85 | 1010.2 |
| 20260510060503 | 14 | 210 | 1.6 | 4.8 | 0.00 | 0.00 | 0.00 | 84 | 1010.2 |
| 20260510060024 | 14 | 215 | 1.6 | 6.4 | 0.00 | 0.00 | 0.00 | 84 | 1010.2 |
| 20260510055524 | 14 | 223 | 1.6 | 6.4 | 0.00 | 0.00 | 0.00 | 84 | 1010.2 |
| 20260510055003 | 14 | 215 | 1.6 | 4.8 | 0.00 | 0.00 | 0.00 | 84 | 1010.3 |
| 20260510054524 | 14 | 207 | 1.6 | 4.8 | 0.00 | 0.00 | 0.00 | 84 | 1010.3 |
| 20260510054003 | 14 | 221 | 1.6 | 3.2 | 0.00 | 0.00 | 0.00 | 83 | 1010.1 |
| 20260510053503 | 14 | 223 | 1.6 | 4.8 | 0.00 | 0.00 | 0.00 | 82 | 1010.2 |
| 20260510053003 | 14 | 219 | 1.6 | 4.8 | 0.00 | 0.00 | 0.00 | 82 | 1010.2 |
| 20260510052524 | 15 | 216 | 1.6 | 4.8 | 0.00 | 0.00 | 0.00 | 82 | 1010.1 |
| 20260510052003 | 15 | 219 | 1.6 | 9.7 | 0.00 | 0.00 | 0.00 | 82 | 1010.2 |
| 20260510051503 | 15 | 220 | 1.6 | 9.7 | 0.00 | 0.00 | 0.00 | 82 | 1010.2 |
| 20260510051003 | 15 | 218 | 1.6 | 8.0 | 0.00 | 0.00 | 0.00 | 81 | 1010.2 |
| 20260510050503 | 15 | 216 | 1.6 | 8.0 | 0.00 | 0.00 | 0.00 | 81 | 1010.2 |
| 20260510050003 | 15 | 216 | 1.6 | 6.4 | 0.00 | 0.00 | 0.00 | 81 | 1010.2 |
| 20260510045503 | 15 | 217 | 1.6 | 4.8 | 0.00 | 0.00 | 0.00 | 80 | 1010.2 |
| 20260510045024 | 15 | 209 | 1.6 | 4.8 | 0.00 | 0.00 | 0.00 | 80 | 1010.2 |
| 20260510044503 | 15 | 211 | 1.6 | 4.8 | 0.00 | 0.00 | 0.00 | 80 | 1010.3 |
| 20260510044003 | 15 | 213 | 3.2 | 8.0 | 0.00 | 0.00 | 0.00 | 79 | 1010.3 |
| 20260510043503 | 15 | 213 | 3.2 | 8.0 | 0.00 | 0.00 | 0.00 | 79 | 1010.3 |
| 20260510043003 | 15 | 215 | 3.2 | 6.4 | 0.00 | 0.00 | 0.00 | 79 | 1010.2 |
| 20260510042503 | 15 | 215 | 1.6 | 6.4 | 0.00 | 0.00 | 0.00 | 79 | 1010.2 |
| 20260510042024 | 15 | 216 | 1.6 | 8.0 | 0.00 | 0.00 | 0.00 | 79 | 1010.2 |
| 20260510041503 | 16 | 218 | 3.2 | 8.0 | 0.00 | 0.00 | 0.00 | 78 | 1010.3 |
| 20260510041003 | 16 | 210 | 3.2 | 6.4 | 0.00 | 0.00 | 0.00 | 79 | 1010.3 |
| 20260510040503 | 16 | 208 | 3.2 | 8.0 | 0.00 | 0.00 | 0.00 | 78 | 1010.3 |
| 20260510040003 | 16 | 216 | 3.2 | 8.0 | 0.00 | 0.00 | 0.00 | 79 | 1010.4 |
| 20260510035503 | 16 | 214 | 3.2 | 8.0 | 0.00 | 0.00 | 0.00 | 79 | 1010.4 |
| 20260510035024 | 16 | 209 | 3.2 | 8.0 | 0.00 | 0.00 | 0.00 | 79 | 1010.5 |
| 20260510034524 | 16 | 205 | 3.2 | 8.0 | 0.00 | 0.00 | 0.00 | 80 | 1010.5 |
| 20260510034003 | 15 | 207 | 3.2 | 6.4 | 0.00 | 0.00 | 0.00 | 80 | 1010.4 |
| 20260510033503 | 15 | 209 | 3.2 | 14.5 | 0.00 | 0.00 | 0.00 | 80 | 1010.5 |
| 20260510033003 | 15 | 205 | 3.2 | 14.5 | 0.00 | 0.00 | 0.00 | 81 | 1010.5 |
| 20260510032503 | 15 | 200 | 3.2 | 9.7 | 0.00 | 0.00 | 0.00 | 83 | 1010.4 |
| 20260510032003 | 15 | 202 | 3.2 | 9.7 | 0.00 | 0.00 | 0.00 | 84 | 1010.5 |
| 20260510031503 | 15 | 199 | 3.2 | 8.0 | 0.00 | 0.00 | 0.00 | 85 | 1010.3 |
| 20260510031003 | 14 | 195 | 1.6 | 6.4 | 0.00 | 0.00 | 0.00 | 86 | 1010.3 |
| 20260510030503 | 14 | 200 | 1.6 | 6.4 | 0.00 | 0.00 | 0.00 | 87 | 1010.3 |
| 20260510030003 | 14 | 199 | 1.6 | 9.7 | 0.00 | 0.00 | 0.00 | 87 | 1010.2 |
| 20260510025503 | 13 | 199 | 1.6 | 9.7 | 0.00 | 0.00 | 0.00 | 87 | 1010.2 |
| 20260510025003 | 14 | 202 | 1.6 | 6.4 | 0.00 | 0.00 | 0.00 | 87 | 1010.2 |
| 20260510024503 | 14 | 205 | 0.0 | 6.4 | 0.00 | 0.00 | 0.00 | 86 | 1010.1 |
| 20260510024003 | 14 | 188 | 0.0 | 1.6 | 0.00 | 0.00 | 0.00 | 84 | 1010.1 |
| 20260510023524 | 15 | 0 | 0.0 | 0.0 | 0.00 | 0.00 | 0.00 | 85 | 1010.1 |
| 20260510023003 | 15 | 0 | 0.0 | 0.0 | 0.00 | 0.00 | 0.00 | 83 | 1010.0 |
| 20260510022503 | 15 | 0 | 0.0 | 0.0 | 0.00 | 0.00 | 0.00 | 83 | 1009.9 |
| 20260510022003 | 15 | 0 | 0.0 | 0.0 | 0.00 | 0.00 | 0.00 | 82 | 1009.8 |
| 20260510021503 | 15 | 0 | 0.0 | 0.0 | 0.00 | 0.00 | 0.00 | 82 | 1009.7 |
| 20260510021003 | 16 | 0 | 0.0 | 0.0 | 0.00 | 0.00 | 0.00 | 81 | 1009.6 |
| 20260510020503 | 16 | 0 | 0.0 | 0.0 | 0.00 | 0.00 | 0.00 | 81 | 1009.4 |
| 20260510020003 | 16 | 179 | 0.0 | 1.6 | 0.00 | 0.00 | 0.00 | 79 | 1009.4 |
| 20260510015503 | 16 | 179 | 0.0 | 1.6 | 0.00 | 0.00 | 0.00 | 79 | 1009.2 |
| 20260510015024 | 16 | 173 | 0.0 | 1.6 | 0.00 | 0.00 | 0.00 | 78 | 1009.2 |
| 20260510014503 | 17 | 173 | 0.0 | 1.6 | 0.00 | 0.00 | 0.00 | 77 | 1009.0 |
| 20260510014003 | 17 | 180 | 0.0 | 1.6 | 0.00 | 0.00 | 0.00 | 75 | 1008.9 |
| 20260510013503 | 17 | 173 | 0.0 | 1.6 | 0.00 | 0.00 | 0.00 | 75 | 1008.8 |
| 20260510013003 | 17 | 168 | 0.0 | 1.6 | 0.00 | 0.00 | 0.00 | 74 | 1008.7 |
| 20260510012503 | 17 | 160 | 0.0 | 1.6 | 0.00 | 0.00 | 0.00 | 72 | 1008.7 |
| 20260510012024 | 18 | 162 | 0.0 | 1.6 | 0.00 | 0.00 | 0.00 | 72 | 1008.7 |
| 20260510011524 | 18 | 168 | 0.0 | 1.6 | 0.00 | 0.00 | 0.00 | 71 | 1008.6 |
| 20260510011003 | 18 | 171 | 0.0 | 3.2 | 0.00 | 0.00 | 0.00 | 70 | 1008.5 |
| 20260510010503 | 18 | 172 | 0.0 | 3.2 | 0.00 | 0.00 | 0.00 | 69 | 1008.5 |
| 20260510010003 | 18 | 171 | 0.0 | 4.8 | 0.00 | 0.00 | 0.00 | 68 | 1008.4 |
| 20260510005503 | 19 | 170 | 1.6 | 4.8 | 0.00 | 0.00 | 0.00 | 67 | 1008.4 |
| 20260510005024 | 19 | 176 | 1.6 | 6.4 | 0.00 | 0.00 | 0.00 | 67 | 1008.4 |
| 20260510004503 | 19 | 185 | 1.6 | 6.4 | 0.00 | 0.00 | 0.00 | 66 | 1008.3 |
| 20260510004003 | 20 | 190 | 1.6 | 6.4 | 0.00 | 0.00 | 0.00 | 66 | 1008.3 |
| 20260510003524 | 20 | 193 | 3.2 | 6.4 | 0.00 | 0.00 | 0.00 | 65 | 1008.3 |
| 20260510003003 | 20 | 199 | 3.2 | 8.0 | 0.00 | 0.00 | 0.00 | 65 | 1008.1 |
| 20260510002503 | 20 | 203 | 3.2 | 8.0 | 0.00 | 0.00 | 0.00 | 64 | 1008.1 |
| 20260510002003 | 20 | 198 | 3.2 | 11.3 | 0.00 | 0.00 | 0.00 | 64 | 1008.1 |
| 20260510001503 | 21 | 191 | 3.2 | 11.3 | 0.00 | 0.00 | 0.00 | 63 | 1008.0 |
| 20260510001003 | 21 | 188 | 3.2 | 11.3 | 0.00 | 0.00 | 0.00 | 62 | 1008.0 |
| 20260510000524 | 21 | 191 | 3.2 | 11.3 | 0.00 | 0.00 | 0.00 | 62 | 1008.0 |
| 20260510000003 | 21 | 190 | 3.2 | 11.3 | 0.00 | 0.00 | 0.00 | 61 | 1008.0 |
| 20260509235503 | 21 | 193 | 3.2 | 11.3 | 0.00 | 0.00 | 0.00 | 61 | 1007.9 |
| 20260509235003 | 21 | 195 | 3.2 | 12.9 | 0.00 | 0.00 | 0.00 | 61 | 1007.9 |
| 20260509234503 | 22 | 192 | 4.8 | 12.9 | 0.00 | 0.00 | 0.00 | 60 | 1007.8 |
| 20260509234003 | 22 | 197 | 3.2 | 12.9 | 0.00 | 0.00 | 0.00 | 60 | 1007.8 |
| 20260509233503 | 22 | 200 | 3.2 | 11.3 | 0.00 | 0.00 | 0.00 | 59 | 1007.7 |
| 20260509233003 | 22 | 201 | 4.8 | 17.7 | 0.00 | 0.00 | 0.00 | 59 | 1007.8 |
| 20260509232503 | 22 | 198 | 4.8 | 17.7 | 0.00 | 0.00 | 0.00 | 57 | 1007.7 |
| 20260509232003 | 22 | 194 | 4.8 | 12.9 | 0.00 | 0.00 | 0.00 | 57 | 1007.7 |
| 20260509231503 | 23 | 195 | 4.8 | 12.9 | 0.00 | 0.00 | 0.00 | 56 | 1007.7 |
| 20260509231003 | 23 | 200 | 4.8 | 12.9 | 0.00 | 0.00 | 0.00 | 56 | 1007.6 |
| 20260509230503 | 23 | 207 | 4.8 | 14.5 | 0.00 | 0.00 | 0.00 | 55 | 1007.5 |
| 20260509230003 | 23 | 210 | 4.8 | 14.5 | 0.00 | 0.00 | 0.00 | 56 | 1007.6 |
| 20260509225503 | 23 | 183 | 4.8 | 14.5 | 0.00 | 0.00 | 0.00 | 56 | 1007.6 |
| 20260509225003 | 23 | 176 | 4.8 | 14.5 | 0.00 | 0.00 | 0.00 | 55 | 1007.6 |
| 20260509224503 | 23 | 199 | 3.2 | 14.5 | 0.00 | 0.00 | 0.00 | 54 | 1007.6 |
| 20260509224004 | 23 | 205 | 4.8 | 16.1 | 0.00 | 0.00 | 0.00 | 55 | 1007.6 |
| 20260509223503 | 23 | 212 | 4.8 | 16.1 | 0.00 | 0.00 | 0.00 | 52 | 1007.6 |
| 20260509223003 | 23 | 214 | 3.2 | 11.3 | 0.00 | 0.00 | 0.00 | 52 | 1007.6 |
| 20260509222524 | 23 | 205 | 4.8 | 17.7 | 0.00 | 0.00 | 0.00 | 51 | 1007.6 |
| 20260509222024 | 24 | 205 | 4.8 | 17.7 | 0.00 | 0.00 | 0.00 | 51 | 1007.6 |
| 20260509221503 | 24 | 205 | 3.2 | 12.9 | 0.00 | 0.00 | 0.00 | 53 | 1007.6 |
| 20260509221003 | 24 | 217 | 4.8 | 14.5 | 0.00 | 0.00 | 0.00 | 55 | 1007.6 |
| 20260509220503 | 23 | 229 | 4.8 | 14.5 | 0.00 | 0.00 | 0.00 | 51 | 1007.5 |
| 20260509220003 | 24 | 229 | 4.8 | 11.3 | 0.00 | 0.00 | 0.00 | 51 | 1007.5 |
| 20260509215503 | 24 | 232 | 3.2 | 11.3 | 0.00 | 0.00 | 0.00 | 52 | 1007.5 |
| 20260509215003 | 23 | 240 | 6.4 | 19.3 | 0.00 | 0.00 | 0.00 | 50 | 1007.5 |
| 20260509214503 | 23 | 230 | 6.4 | 19.3 | 0.00 | 0.00 | 0.00 | 49 | 1007.5 |
| 20260509214024 | 23 | 218 | 6.4 | 16.1 | 0.00 | 0.00 | 0.00 | 49 | 1007.5 |
| 20260509213503 | 23 | 215 | 6.4 | 16.1 | 0.00 | 0.00 | 0.00 | 53 | 1007.6 |
| 20260509213003 | 23 | 204 | 4.8 | 16.1 | 0.00 | 0.00 | 0.00 | 54 | 1007.6 |
| 20260509212503 | 23 | 201 | 4.8 | 12.9 | 0.00 | 0.00 | 0.00 | 54 | 1007.7 |
| 20260509212003 | 23 | 220 | 4.8 | 12.9 | 0.00 | 0.00 | 0.00 | 54 | 1007.7 |
| 20260509211503 | 23 | 241 | 4.8 | 12.9 | 0.00 | 0.00 | 0.00 | 53 | 1007.7 |
| 20260509211003 | 23 | 250 | 4.8 | 12.9 | 0.00 | 0.00 | 0.00 | 54 | 1007.8 |
| 20260509210524 | 23 | 238 | 4.8 | 12.9 | 0.00 | 0.00 | 0.00 | 54 | 1007.7 |
| 20260509210003 | 23 | 219 | 4.8 | 12.9 | 0.00 | 0.00 | 0.00 | 56 | 1007.7 |
| 20260509205503 | 23 | 213 | 4.8 | 14.5 | 0.00 | 0.00 | 0.00 | 55 | 1007.7 |
| 20260509205003 | 23 | 201 | 4.8 | 16.1 | 0.00 | 0.00 | 0.00 | 58 | 1007.7 |
| 20260509204503 | 23 | 220 | 4.8 | 16.1 | 0.00 | 0.00 | 0.00 | 56 | 1007.8 |
| 20260509204003 | 23 | 236 | 4.8 | 14.5 | 0.00 | 0.00 | 0.00 | 55 | 1007.9 |
| 20260509203503 | 23 | 257 | 4.8 | 12.9 | 0.00 | 0.00 | 0.00 | 58 | 1007.9 |
| 20260509203003 | 23 | 246 | 6.4 | 20.9 | 0.00 | 0.00 | 0.00 | 59 | 1007.9 |
| 20260509202503 | 23 | 234 | 8.0 | 20.9 | 0.00 | 0.00 | 0.00 | 54 | 1008.0 |
| 20260509202024 | 23 | 224 | 6.4 | 20.9 | 0.00 | 0.00 | 0.00 | 57 | 1008.0 |
| 20260509201503 | 22 | 222 | 8.0 | 16.1 | 0.00 | 0.00 | 0.00 | 62 | 1007.8 |
| 20260509201003 | 22 | 220 | 8.0 | 17.7 | 0.00 | 0.00 | 0.00 | 60 | 1008.0 |
| 20260509200524 | 22 | 203 | 8.0 | 22.5 | 0.00 | 0.00 | 0.00 | 59 | 1008.0 |
| 20260509200003 | 22 | 200 | 6.4 | 22.5 | 0.00 | 0.00 | 0.00 | 61 | 1008.0 |
| 20260509195503 | 22 | 214 | 4.8 | 17.7 | 0.00 | 0.00 | 0.00 | 63 | 1008.1 |
| 20260509195003 | 23 | 206 | 4.8 | 17.7 | 0.00 | 0.00 | 0.00 | 60 | 1008.2 |
| 20260509194503 | 23 | 210 | 4.8 | 11.3 | 0.00 | 0.00 | 0.00 | 60 | 1008.3 |
| 20260509194003 | 23 | 220 | 4.8 | 12.9 | 0.00 | 0.00 | 0.00 | 63 | 1008.4 |
| 20260509193503 | 22 | 221 | 4.8 | 17.7 | 0.00 | 0.00 | 0.00 | 59 | 1008.3 |
| 20260509193003 | 22 | 239 | 4.8 | 17.7 | 0.00 | 0.00 | 0.00 | 60 | 1008.4 |
| 20260509192503 | 22 | 233 | 4.8 | 11.3 | 0.00 | 0.00 | 0.00 | 63 | 1008.4 |
| 20260509192024 | 22 | 228 | 4.8 | 11.3 | 0.00 | 0.00 | 0.00 | 62 | 1008.4 |
| 20260509191503 | 22 | 227 | 6.4 | 19.3 | 0.00 | 0.00 | 0.00 | 62 | 1008.4 |
| 20260509191003 | 22 | 225 | 8.0 | 19.3 | 0.00 | 0.00 | 0.00 | 61 | 1008.4 |
| 20260509190503 | 22 | 235 | 8.0 | 17.7 | 0.00 | 0.00 | 0.00 | 63 | 1008.5 |
| 20260509190003 | 22 | 226 | 6.4 | 17.7 | 0.00 | 0.00 | 0.00 | 63 | 1008.5 |
| 20260509185503 | 22 | 210 | 6.4 | 17.7 | 0.00 | 0.00 | 0.00 | 64 | 1008.4 |
| 20260509185003 | 22 | 230 | 6.4 | 17.7 | 0.00 | 0.00 | 0.00 | 64 | 1008.5 |
| 20260509184503 | 22 | 243 | 6.4 | 17.7 | 0.00 | 0.00 | 0.00 | 64 | 1008.5 |
| 20260509184024 | 22 | 234 | 6.4 | 19.3 | 0.00 | 0.00 | 0.00 | 67 | 1008.6 |
| 20260509183503 | 22 | 231 | 8.0 | 19.3 | 0.00 | 0.00 | 0.00 | 63 | 1008.5 |
| 20260509183003 | 21 | 225 | 8.0 | 19.3 | 0.00 | 0.00 | 0.00 | 62 | 1008.6 |
| 20260509182503 | 21 | 218 | 8.0 | 19.3 | 0.00 | 0.00 | 0.00 | 65 | 1008.5 |
| 20260509182024 | 21 | 221 | 6.4 | 19.3 | 0.00 | 0.00 | 0.00 | 66 | 1008.6 |
| 20260509181503 | 21 | 225 | 4.8 | 19.3 | 0.00 | 0.00 | 0.00 | 67 | 1008.6 |
| 20260509181003 | 21 | 218 | 4.8 | 14.5 | 0.00 | 0.00 | 0.00 | 65 | 1008.5 |
| 20260509180503 | 21 | 223 | 6.4 | 14.5 | 0.00 | 0.00 | 0.00 | 65 | 1008.5 |
| 20260509180003 | 21 | 224 | 6.4 | 16.1 | 0.00 | 0.00 | 0.00 | 71 | 1008.5 |
| 20260509175503 | 21 | 231 | 6.4 | 20.9 | 0.00 | 0.00 | 0.00 | 68 | 1008.4 |
| 20260509175003 | 21 | 237 | 6.4 | 20.9 | 0.00 | 0.00 | 0.00 | 69 | 1008.4 |
| 20260509174524 | 21 | 233 | 4.8 | 14.5 | 0.00 | 0.00 | 0.00 | 68 | 1008.3 |
| 20260509174003 | 21 | 233 | 6.4 | 20.9 | 0.00 | 0.00 | 0.00 | 70 | 1008.4 |
| 20260509173503 | 21 | 225 | 8.0 | 20.9 | 0.00 | 0.00 | 0.00 | 67 | 1008.6 |
| 20260509173003 | 21 | 237 | 6.4 | 19.3 | 0.00 | 0.00 | 0.00 | 66 | 1008.6 |
| 20260509172503 | 21 | 233 | 6.4 | 16.1 | 0.00 | 0.00 | 0.00 | 71 | 1008.6 |
| 20260509172024 | 21 | 215 | 4.8 | 17.7 | 0.00 | 0.00 | 0.00 | 67 | 1008.5 |
| 20260509171503 | 21 | 229 | 4.8 | 17.7 | 0.00 | 0.00 | 0.00 | 75 | 1008.5 |
| 20260509171024 | 20 | 219 | 6.4 | 16.1 | 0.00 | 0.00 | 0.00 | 71 | 1008.5 |
| 20260509170503 | 20 | 215 | 6.4 | 14.5 | 0.00 | 0.00 | 0.00 | 71 | 1008.4 |
| 20260509170003 | 20 | 226 | 6.4 | 16.1 | 0.00 | 0.00 | 0.00 | 71 | 1008.4 |
| 20260509165503 | 20 | 217 | 8.0 | 17.7 | 0.00 | 0.00 | 0.00 | 73 | 1008.4 |
| 20260509165003 | 20 | 198 | 6.4 | 19.3 | 0.00 | 0.00 | 0.00 | 71 | 1008.4 |
| 20260509164503 | 20 | 198 | 6.4 | 19.3 | 0.00 | 0.00 | 0.00 | 71 | 1008.4 |
| 20260509164003 | 19 | 219 | 6.4 | 16.1 | 0.00 | 0.00 | 0.00 | 71 | 1008.4 |
| 20260509163503 | 19 | 221 | 6.4 | 16.1 | 0.00 | 0.00 | 0.00 | 71 | 1008.5 |
| 20260509163003 | 19 | 215 | 4.8 | 16.1 | 0.00 | 0.00 | 0.00 | 73 | 1008.4 |
| 20260509162524 | 19 | 226 | 6.4 | 19.3 | 0.00 | 0.00 | 0.00 | 75 | 1008.4 |
| 20260509162003 | 18 | 218 | 6.4 | 19.3 | 0.00 | 0.00 | 0.00 | 72 | 1008.5 |
| 20260509161503 | 19 | 211 | 6.4 | 19.3 | 0.00 | 0.00 | 0.00 | 73 | 1008.5 |
| 20260509161024 | 18 | 210 | 6.4 | 19.3 | 0.00 | 0.00 | 0.00 | 73 | 1008.4 |
| 20260509160503 | 18 | 215 | 4.8 | 16.1 | 0.00 | 0.00 | 0.00 | 72 | 1008.4 |
| 20260509160003 | 19 | 216 | 4.8 | 16.1 | 0.00 | 0.00 | 0.00 | 72 | 1008.4 |
| 20260509155503 | 19 | 208 | 4.8 | 14.5 | 0.00 | 0.00 | 0.00 | 74 | 1008.4 |
| 20260509155003 | 18 | 220 | 4.8 | 14.5 | 0.00 | 0.00 | 0.00 | 73 | 1008.4 |
| 20260509154503 | 18 | 230 | 4.8 | 12.9 | 0.00 | 0.00 | 0.00 | 74 | 1008.4 |
| 20260509154003 | 18 | 228 | 4.8 | 12.9 | 0.00 | 0.00 | 0.00 | 74 | 1008.5 |
| 20260509153524 | 18 | 226 | 6.4 | 14.5 | 0.00 | 0.00 | 0.00 | 73 | 1008.4 |
| 20260509153003 | 18 | 221 | 6.4 | 14.5 | 0.00 | 0.00 | 0.00 | 72 | 1008.5 |
| 20260509152503 | 17 | 215 | 6.4 | 16.1 | 0.00 | 0.00 | 0.00 | 74 | 1008.5 |
| 20260509152003 | 17 | 225 | 6.4 | 19.3 | 0.00 | 0.00 | 0.00 | 76 | 1008.5 |
| 20260509151503 | 17 | 226 | 6.4 | 19.3 | 0.00 | 0.00 | 0.00 | 76 | 1008.4 |
| 20260509151003 | 17 | 216 | 4.8 | 12.9 | 0.00 | 0.00 | 0.00 | 78 | 1008.3 |
| 20260509150503 | 16 | 224 | 4.8 | 12.9 | 0.00 | 0.00 | 0.00 | 77 | 1008.3 |
| 20260509150024 | 16 | 222 | 4.8 | 14.5 | 0.00 | 0.00 | 0.00 | 78 | 1008.4 |
| 20260509145524 | 16 | 217 | 4.8 | 14.5 | 0.00 | 0.00 | 0.00 | 78 | 1008.3 |
| 20260509145024 | 16 | 219 | 4.8 | 14.5 | 0.00 | 0.00 | 0.00 | 78 | 1008.3 |
| 20260509144503 | 16 | 224 | 4.8 | 14.5 | 0.00 | 0.00 | 0.00 | 80 | 1008.3 |
| 20260509144003 | 16 | 225 | 6.4 | 17.7 | 0.00 | 0.00 | 0.00 | 78 | 1008.3 |
| 20260509143503 | 16 | 220 | 8.0 | 17.7 | 0.00 | 0.00 | 0.00 | 78 | 1008.4 |
| 20260509143003 | 16 | 215 | 8.0 | 20.9 | 0.00 | 0.00 | 0.00 | 77 | 1008.4 |
| 20260509142503 | 16 | 216 | 6.4 | 20.9 | 0.00 | 0.00 | 0.00 | 76 | 1008.4 |
| 20260509142003 | 16 | 217 | 6.4 | 17.7 | 0.00 | 0.00 | 0.00 | 78 | 1008.5 |
| 20260509141503 | 16 | 222 | 6.4 | 17.7 | 0.00 | 0.00 | 0.00 | 78 | 1008.4 |
| 20260509141003 | 15 | 223 | 6.4 | 14.5 | 0.00 | 0.00 | 0.00 | 78 | 1008.5 |
| 20260509140524 | 15 | 219 | 6.4 | 12.9 | 0.00 | 0.00 | 0.00 | 80 | 1008.4 |
| 20260509140024 | 15 | 213 | 4.8 | 12.9 | 0.00 | 0.00 | 0.00 | 81 | 1008.4 |
| 20260509135503 | 15 | 215 | 4.8 | 11.3 | 0.00 | 0.00 | 0.00 | 82 | 1008.4 |
| 20260509135003 | 15 | 212 | 3.2 | 11.3 | 0.00 | 0.00 | 0.00 | 81 | 1008.3 |
| 20260509134503 | 15 | 212 | 1.6 | 8.0 | 0.00 | 0.00 | 0.00 | 81 | 1008.4 |
| 20260509134003 | 14 | 218 | 1.6 | 6.4 | 0.00 | 0.00 | 0.00 | 83 | 1008.4 |
| 20260509133503 | 14 | 213 | 1.6 | 4.8 | 0.00 | 0.00 | 0.00 | 83 | 1008.3 |
| 20260509133024 | 13 | 207 | 1.6 | 4.8 | 0.00 | 0.00 | 0.00 | 83 | 1008.2 |
| 20260509132503 | 13 | 215 | 1.6 | 4.8 | 0.00 | 0.00 | 0.00 | 85 | 1008.1 |
| 20260509132024 | 13 | 221 | 0.0 | 4.8 | 0.00 | 0.00 | 0.00 | 88 | 1008.0 |
| 20260509131503 | 13 | 250 | 0.0 | 1.6 | 0.00 | 0.00 | 0.00 | 87 | 1008.0 |
| 20260509131003 | 13 | 0 | 0.0 | 0.0 | 0.00 | 0.00 | 0.00 | 87 | 1008.0 |
| 20260509130503 | 12 | 0 | 0.0 | 0.0 | 0.00 | 0.00 | 0.00 | 87 | 1008.0 |
| 20260509130024 | 12 | 260 | 0.0 | 3.2 | 0.00 | 0.00 | 0.00 | 87 | 1007.9 |
| 20260509125524 | 12 | 290 | 0.0 | 3.2 | 0.00 | 0.00 | 0.00 | 87 | 1008.1 |
| 20260509125003 | 12 | 24 | 0.0 | 3.2 | 0.00 | 0.00 | 0.00 | 86 | 1007.9 |
| 20260509124503 | 12 | 55 | 1.6 | 3.2 | 0.00 | 0.00 | 0.00 | 87 | 1007.9 |
| 20260509124003 | 12 | 108 | 0.0 | 3.2 | 0.00 | 0.00 | 0.00 | 86 | 1007.9 |
| 20260509123503 | 12 | 0 | 0.0 | 0.0 | 0.00 | 0.00 | 0.00 | 85 | 1008.2 |
| 20260509123003 | 12 | 138 | 0.0 | 1.6 | 0.00 | 0.00 | 0.00 | 85 | 1008.1 |
| 20260509122503 | 12 | 148 | 0.0 | 3.2 | 0.00 | 0.00 | 0.00 | 84 | 1008.1 |
| 20260509122003 | 12 | 160 | 1.6 | 3.2 | 0.00 | 0.00 | 0.00 | 85 | 1007.8 |
| 20260509121524 | 12 | 174 | 1.6 | 4.8 | 0.00 | 0.00 | 0.00 | 85 | 1007.9 |
| 20260509121003 | 12 | 31 | 3.2 | 11.3 | 0.00 | 0.00 | 0.00 | 84 | 1007.6 |
| 20260509120503 | 12 | 32 | 4.8 | 11.3 | 0.00 | 0.00 | 0.00 | 84 | 1007.2 |
| 20260509120003 | 12 | 38 | 3.2 | 8.0 | 0.00 | 0.00 | 0.00 | 85 | 1007.1 |
| 20260509115524 | 12 | 31 | 1.6 | 4.8 | 0.00 | 0.00 | 0.00 | 86 | 1007.2 |
| 20260509115003 | 12 | 5 | 3.2 | 8.0 | 0.00 | 0.00 | 0.00 | 84 | 1007.8 |
| 20260509114503 | 11 | 358 | 3.2 | 8.0 | 0.00 | 0.00 | 0.00 | 86 | 1007.6 |
| 20260509114003 | 11 | 336 | 3.2 | 4.8 | 0.00 | 0.00 | 0.00 | 87 | 1007.7 |
| 20260509113503 | 11 | 330 | 1.6 | 4.8 | 0.00 | 0.00 | 0.00 | 88 | 1007.6 |
| 20260509113024 | 11 | 216 | 0.0 | 3.2 | 0.00 | 0.00 | 0.00 | 89 | 1007.4 |
| 20260509112503 | 11 | 166 | 0.0 | 3.2 | 0.00 | 0.00 | 0.00 | 90 | 1007.4 |
| 20260509112003 | 11 | 171 | 0.0 | 3.2 | 0.00 | 0.00 | 0.00 | 88 | 1007.4 |
| 20260509111503 | 11 | 248 | 0.0 | 1.6 | 0.00 | 0.00 | 0.00 | 88 | 1007.5 |
| 20260509111003 | 11 | 248 | 0.0 | 1.6 | 0.00 | 0.00 | 0.00 | 88 | 1007.5 |
| 20260509110524 | 11 | 248 | 0.0 | 1.6 | 0.00 | 0.00 | 0.00 | 87 | 1007.5 |
| 20260509110024 | 11 | 248 | 0.0 | 1.6 | 0.00 | 0.00 | 0.00 | 88 | 1007.6 |
| 20260509105503 | 11 | 256 | 0.0 | 3.2 | 0.00 | 0.00 | 0.00 | 87 | 1007.6 |
| 20260509105003 | 11 | 254 | 0.0 | 3.2 | 0.00 | 0.00 | 0.00 | 85 | 1007.6 |
| 20260509104503 | 11 | 248 | 0.0 | 1.6 | 0.00 | 0.00 | 0.00 | 85 | 1007.5 |
| 20260509104003 | 11 | 248 | 0.0 | 1.6 | 0.00 | 0.00 | 0.00 | 85 | 1007.5 |
| 20260509103503 | 12 | 246 | 0.0 | 3.2 | 0.00 | 0.00 | 0.00 | 85 | 1007.5 |
| 20260509103003 | 12 | 245 | 0.0 | 3.2 | 0.00 | 0.00 | 0.00 | 86 | 1007.6 |
| 20260509102503 | 12 | 241 | 0.0 | 1.6 | 0.00 | 0.00 | 0.00 | 84 | 1007.6 |
| 20260509102003 | 12 | 241 | 0.0 | 1.6 | 0.00 | 0.00 | 0.00 | 84 | 1007.5 |
| 20260509101503 | 12 | 0 | 0.0 | 0.0 | 0.00 | 0.00 | 0.00 | 83 | 1007.6 |
| 20260509101003 | 12 | 0 | 0.0 | 0.0 | 0.00 | 0.00 | 0.00 | 82 | 1007.6 |
| 20260509100503 | 12 | 0 | 0.0 | 0.0 | 0.00 | 0.00 | 0.00 | 82 | 1007.5 |
| 20260509100003 | 12 | 250 | 0.0 | 3.2 | 0.00 | 0.00 | 0.00 | 80 | 1007.6 |
| 20260509095503 | 12 | 256 | 0.0 | 3.2 | 0.00 | 0.00 | 0.00 | 80 | 1007.6 |
| 20260509095024 | 12 | 295 | 0.0 | 3.2 | 0.00 | 0.00 | 0.00 | 80 | 1007.6 |
| 20260509094503 | 12 | 296 | 0.0 | 1.6 | 0.00 | 0.00 | 0.00 | 80 | 1007.5 |
| 20260509094003 | 12 | 295 | 0.0 | 1.6 | 0.00 | 0.00 | 0.00 | 81 | 1007.6 |
| 20260509093524 | 12 | 295 | 0.0 | 1.6 | 0.00 | 0.00 | 0.00 | 81 | 1007.6 |
| 20260509093003 | 12 | 295 | 0.0 | 1.6 | 0.00 | 0.00 | 0.00 | 78 | 1007.8 |
| 20260509092503 | 12 | 295 | 0.0 | 1.6 | 0.00 | 0.00 | 0.00 | 78 | 1007.8 |
| 20260509092003 | 12 | 295 | 0.0 | 1.6 | 0.00 | 0.00 | 0.00 | 79 | 1007.8 |
| 20260509091524 | 13 | 296 | 1.6 | 3.2 | 0.00 | 0.00 | 0.00 | 79 | 1007.8 |
| 20260509091003 | 13 | 287 | 1.6 | 4.8 | 0.00 | 0.00 | 0.00 | 78 | 1007.8 |
| 20260509090503 | 13 | 271 | 1.6 | 4.8 | 0.00 | 0.00 | 0.00 | 75 | 1007.7 |
| 20260509090003 | 13 | 257 | 1.6 | 4.8 | 0.00 | 0.00 | 0.00 | 74 | 1007.7 |
| 20260509085503 | 13 | 218 | 0.0 | 3.2 | 0.00 | 0.00 | 0.00 | 73 | 1007.6 |
| 20260509085003 | 13 | 228 | 1.6 | 3.2 | 0.00 | 0.00 | 0.00 | 71 | 1007.7 |
| 20260509084503 | 13 | 238 | 0.0 | 3.2 | 0.00 | 0.00 | 0.00 | 72 | 1007.6 |
| 20260509084003 | 13 | 224 | 0.0 | 3.2 | 0.00 | 0.00 | 0.00 | 73 | 1007.7 |
| 20260509083503 | 12 | 205 | 1.6 | 8.0 | 0.00 | 0.00 | 0.00 | 74 | 1007.7 |
| 20260509083003 | 12 | 189 | 1.6 | 8.0 | 0.00 | 0.00 | 0.00 | 76 | 1007.9 |